User: anonymous   Login
Location: Montr�al
(45.5000°N, 73.5830°W)
Time: 18:32:12
(UTC-04:00)
Language:

Cosmos 2369 - Orbit

View from above orbital plane
View from above orbital plane
View from above satellite
View from above satellite

Ground track
Ground track

The orbit data is extracted from the following two-line orbital elements,

1 26069U 00006A   16127.54712508  .00000358  00000-0  21581-3 0  9994
2 26069  70.9926 130.9094 0010305 133.3254 226.8728 14.13326458838667
Epoch (UTC): 06 May 2016 13:07:51
Eccentricity: 0.0010305
inclination: 70.9926°
perigee height: 840 km
apogee height: 855 km
right ascension of ascending node: 130.9094°
argument of perigee: 133.3254°
revolutions per day: 14.13326458
mean anomaly at epoch: 226.8728°
orbit number at epoch: 83866

The dashed part of the orbit path shows where the satellite is in the earth's shadow,  

DLR